Location: Belfast
(54.5830°N, 5.9330°W)
Time: 16:52:41
(UTC+00:00)

ISS - Visible Passes

Search period start: 26 February 2017 00:00
Search period end: 08 March 2017 00:00
Orbit: 399 x 408 km, 51.6° (Epoch: 26 February)

Date Brightness Start Highest point End Pass type
(mag) Time Alt. Az. Time Alt. Az. Time Alt. Az.
03 Mar -0.4 06:22:05 10° S 06:23:49 14° SE 06:25:33 10° ESE visible
05 Mar -1.1 06:12:11 10° SSW 06:14:46 21° SSE 06:17:22 10° E visible
06 Mar -0.7 05:20:23 10° S 05:22:23 15° SE 05:24:24 10° ESE visible
07 Mar -0.4 04:29:38 10° SSE 04:30:03 10° SE 04:30:28 10° SE visible
07 Mar -1.8 06:02:47 10° SW 06:05:45 31° SSE 06:08:44 10° E visible
